This demonstration page uses our WeatherBlox Daily Observations layout. Learn more.

Left ArrowRight Arrow

39.95238, -75.16362

Hourly Observations for April 24, 2015

Temp ( °F °C ) Dew Point ( °F °C ) Humidity (%) Winds ( mph kmh ) Pressure ( in mb ) Visibility ( mi km ) Precip ( " mm )
12:54 am 00:54 Mostly Cloudy 43 6.1 22 -5.6 43 43 WNW 16 26 29.90 1013 10 16 0.00 0.00
1:54 am 01:54 Cloudy 42 5.6 22 -5.6 45 45 NW 16 26 29.91 1013 10 16 0.00 0.00
2:54 am 02:54 Cloudy 42 5.6 22 -5.6 45 45 NW 9 15 29.91 1013 10 16 0.00 0.00
3:54 am 03:54 Cloudy 41 5 20 -6.7 43 43 NW 18 30 29.93 1013 10 16 0.00 0.00
4:54 am 04:54 Cloudy 40 4.4 19 -7.2 43 43 NW 16 26 29.94 1014 10 16 0.00 0.00
5:54 am 05:54 Cloudy 40 4.4 20 -6.7 45 45 NW 21 33 29.95 1014 10 16 0.00 0.00
6:54 am 06:54 Cloudy 40 4.4 19 -7.2 43 43 WNW 20 31 29.96 1015 10 16 0.00 0.00
7:54 am 07:54 Partly Cloudy 41 5 19 -7.2 41 41 NW 15 24 29.97 1015 10 16 0.00 0.00
8:54 am 08:54 Mostly Cloudy 42 5.6 18 -7.8 38 38 NNW 20 31 29.96 1015 10 16 0.00 0.00
9:54 am 09:54 Partly Cloudy 44 6.7 16 -8.9 32 32 NW 22 35 29.96 1015 10 16 0.00 0.00
10:54 am 10:54 Partly Cloudy 45 7.2 16 -8.9 31 31 WNW 15 24 29.94 1014 10 16 0.00 0.00
11:54 am 11:54 Mostly Sunny 49 9.4 17 -8.3 28 28 WNW 15 24 29.92 1013 10 16 0.00 0.00
12:54 pm 12:54 Mostly Sunny 50 10 16 -8.9 26 26 NW 16 26 29.91 1013 10 16 0.00 0.00
1:54 pm 13:54 Mostly Sunny 53 11.7 15 -9.4 22 22 WNW 24 39 29.89 1012 10 16 0.00 0.00
2:54 pm 14:54 Mostly Sunny 54 12.2 17 -8.3 23 23 NNW 18 30 29.87 1012 10 16 0.00 0.00
3:54 pm 15:54 Partly Cloudy 55 12.8 14 -10 20 20 WNW 23 37 29.87 1012 10 16 0.00 0.00
4:54 pm 16:54 Partly Cloudy 57 13.9 15 -9.4 19 19 WNW 21 33 29.87 1012 10 16 0.00 0.00
5:54 pm 17:54 Partly Cloudy 56 13.3 14 -10 19 19 NW 18 30 29.87 1012 10 16 0.00 0.00
6:54 pm 18:54 Partly Cloudy 56 13.3 14 -10 19 19 WNW 17 28 29.87 1012 10 16 0.00 0.00
7:54 pm 19:54 Mostly Clear 55 12.8 15 -9.4 20 20 WNW 14 22 29.89 1012 10 16 0.00 0.00
8:54 pm 20:54 Clear 54 12.2 16 -8.9 22 22 W 9 15 29.91 1013 10 16 0.00 0.00
9:54 pm 21:54 Clear 51 10.6 18 -7.8 27 27 N 10 17 29.93 1014 10 16 0.00 0.00
10:54 pm 22:54 Clear 47 8.3 20 -6.7 34 34 N 13 20 29.95 1014 10 16 0.00 0.00
11:54 pm 23:54 Mostly Clear 45 7.2 20 -6.7 37 37 NNE 16 26 29.97 1015 10 16 0.00 0.00

Powered by AerisWeather